MBU4FR LEPA-EDDG

Flight info

Callsign MBU4FR
Flight time 2h 11m
Altitude 36000
Route MEROS N853 LUMAS DCT MAXIR DCT LUSOL DCT BODRU DCT OKTET DCT IRMAR DCT KINES DCT VANAS DCT MOBLO DCT UBIMA DCT GILIR DCT PENDU DCT IXILU DCT GIVOR DCT SORAL DCT IBERA DCT DIK/N0445F370 T856 DEPOK/N0415F230 T856 QATJA N853 HMM HMM1B
Aircraft A320/M-SDE3FGHIRWY/LB1

Departure

Time 2026-04-24 13:59
Airport Palma de Mallorca Airport (LEPA)

Arrival

Time 2026-04-24 16:11
Airport Münster Osnabrück Airport (EDDG)
Time Latitude Longitude Altitude Speed Heading
2026-04-24 13:32 39.54945 2.73767 38 ft 0 kts 239°
2026-04-24 13:42 39.54947 2.73770 38 ft 2 kts 239°
2026-04-24 13:42 39.54956 2.73791 61 ft 3 kts 239°
2026-04-24 13:42 39.54967 2.73813 28 ft 3 kts 239°
2026-04-24 13:43 39.54977 2.73835 38 ft 3 kts 236°
2026-04-24 13:43 39.54989 2.73854 37 ft 3 kts 211°
2026-04-24 13:43 39.55007 2.73863 38 ft 3 kts 179°
2026-04-24 13:43 39.55026 2.73859 37 ft 3 kts 154°
2026-04-24 13:44 39.55037 2.73852 35 ft 2 kts 149°
2026-04-24 13:44 39.55053 2.73840 37 ft 3 kts 149°
2026-04-24 13:44 39.55060 2.73834 36 ft 0 kts 149°
2026-04-24 13:46 39.55059 2.73834 36 ft 1 kts 149°
2026-04-24 13:47 39.55040 2.73850 36 ft 6 kts 149°
2026-04-24 13:47 39.55009 2.73874 38 ft 10 kts 149°
2026-04-24 13:47 39.54947 2.73922 37 ft 10 kts 149°
2026-04-24 13:47 39.54885 2.73972 38 ft 12 kts 148°
2026-04-24 13:48 39.54817 2.73989 38 ft 4 kts 204°
2026-04-24 13:48 39.54791 2.73953 38 ft 7 kts 227°
2026-04-24 13:48 39.54750 2.73950 38 ft 6 kts 151°
2026-04-24 13:48 39.54719 2.73958 38 ft 4 kts 190°
2026-04-24 13:49 39.54702 2.73943 37 ft 2 kts 234°
2026-04-24 13:49 39.54700 2.73939 37 ft 0 kts 238°
2026-04-24 13:50 39.54689 2.73915 38 ft 9 kts 238°
2026-04-24 13:50 39.54642 2.73814 37 ft 14 kts 240°
2026-04-24 13:51 39.54593 2.73712 38 ft 13 kts 238°
2026-04-24 13:51 39.54597 2.73638 37 ft 8 kts 319°
2026-04-24 13:51 39.54642 2.73634 38 ft 7 kts 42°
2026-04-24 13:51 39.54681 2.73721 38 ft 15 kts 59°
2026-04-24 13:52 39.54738 2.73845 38 ft 17 kts 58°
2026-04-24 13:52 39.54803 2.73973 36 ft 15 kts 54°
2026-04-24 13:52 39.54874 2.73980 38 ft 11 kts 328°
2026-04-24 13:52 39.54931 2.73972 38 ft 9 kts 41°
2026-04-24 13:53 39.54982 2.74005 38 ft 10 kts 338°
2026-04-24 13:53 39.55063 2.73939 38 ft 17 kts 328°
2026-04-24 13:53 39.55179 2.73849 37 ft 21 kts 329°
2026-04-24 13:53 39.55305 2.73749 38 ft 22 kts 328°
2026-04-24 13:54 39.55437 2.73645 38 ft 23 kts 328°
2026-04-24 13:54 39.55573 2.73537 38 ft 20 kts 328°
2026-04-24 13:54 39.55651 2.73506 38 ft 11 kts 26°
2026-04-24 13:54 39.55703 2.73605 38 ft 17 kts 58°
2026-04-24 13:55 39.55775 2.73757 38 ft 23 kts 59°
2026-04-24 13:55 39.55865 2.73947 36 ft 25 kts 58°
2026-04-24 13:55 39.55958 2.74142 38 ft 25 kts 58°
2026-04-24 13:55 39.56048 2.74275 38 ft 16 kts 30°
2026-04-24 13:56 39.56135 2.74333 36 ft 9 kts 26°
2026-04-24 13:56 39.56139 2.74336 36 ft 0 kts 26°
2026-04-24 13:56 39.56153 2.74344 38 ft 5 kts 23°
2026-04-24 13:56 39.56200 2.74347 38 ft 9 kts 345°
2026-04-24 13:57 39.56239 2.74295 38 ft 6 kts 275°
2026-04-24 13:57 39.56233 2.74276 38 ft 0 kts 238°
2026-04-24 13:58 39.56213 2.74236 36 ft 22 kts 238°
2026-04-24 13:58 39.55992 2.73765 38 ft 97 kts 239°
2026-04-24 13:59 39.55533 2.72796 38 ft 154 kts 238°
2026-04-24 13:59 39.54909 2.71488 325 ft 173 kts 239°
2026-04-24 13:59 39.54290 2.70176 1099 ft 170 kts 236°
2026-04-24 13:59 39.53658 2.68852 1724 ft 177 kts 237°
2026-04-24 14:00 39.52964 2.67426 2041 ft 198 kts 236°
2026-04-24 14:00 39.52207 2.65827 2350 ft 219 kts 238°
2026-04-24 14:00 39.51368 2.64039 2670 ft 245 kts 237°
2026-04-24 14:00 39.50433 2.62076 3107 ft 266 kts 237°
2026-04-24 14:01 39.49363 2.60085 3798 ft 275 kts 226°
2026-04-24 14:01 39.47803 2.58649 4617 ft 278 kts 201°
2026-04-24 14:01 39.45912 2.58177 5405 ft 280 kts 176°
2026-04-24 14:01 39.44026 2.58715 6254 ft 280 kts 154°
2026-04-24 14:02 39.42436 2.60156 7058 ft 281 kts 132°
2026-04-24 14:02 39.41402 2.62317 7713 ft 288 kts 106°
2026-04-24 14:02 39.41227 2.64879 8481 ft 288 kts 84°
2026-04-24 14:02 39.41375 2.67448 9233 ft 293 kts 85°
2026-04-24 14:03 39.41495 2.70102 9957 ft 299 kts 85°
2026-04-24 14:03 39.41599 2.72827 10489 ft 311 kts 86°
2026-04-24 14:03 39.41682 2.75722 10694 ft 335 kts 87°
2026-04-24 14:03 39.41755 2.78833 10856 ft 358 kts 87°
2026-04-24 14:04 39.41826 2.82118 11285 ft 369 kts 87°
2026-04-24 14:04 39.41895 2.85444 11939 ft 373 kts 87°
2026-04-24 14:04 39.41965 2.88813 12634 ft 376 kts 87°
2026-04-24 14:04 39.42038 2.92207 13336 ft 378 kts 86°
2026-04-24 14:05 39.42113 2.95610 14043 ft 380 kts 86°
2026-04-24 14:05 39.42187 2.99041 14667 ft 383 kts 86°
2026-04-24 14:05 39.42261 3.02495 15257 ft 386 kts 86°
2026-04-24 14:05 39.42334 3.05976 15844 ft 389 kts 87°
2026-04-24 14:06 39.42408 3.09487 16432 ft 392 kts 87°
2026-04-24 14:06 39.42481 3.13026 17010 ft 395 kts 87°
2026-04-24 14:06 39.42554 3.16590 17596 ft 399 kts 87°
2026-04-24 14:06 39.42626 3.20195 18165 ft 402 kts 87°
2026-04-24 14:07 39.42925 3.23797 18689 ft 405 kts 77°
2026-04-24 14:07 39.43719 3.27291 19154 ft 407 kts 66°
2026-04-24 14:07 39.44986 3.30564 19605 ft 409 kts 57°
2026-04-24 14:07 39.46463 3.33744 20060 ft 413 kts 57°
2026-04-24 14:08 39.47941 3.36943 20510 ft 416 kts 58°
2026-04-24 14:08 39.49431 3.40178 20946 ft 420 kts 58°
2026-04-24 14:08 39.50926 3.43440 21379 ft 423 kts 58°
2026-04-24 14:08 39.52407 3.46681 21797 ft 426 kts 58°
2026-04-24 14:09 39.53921 3.50000 22222 ft 429 kts 58°
2026-04-24 14:09 39.55446 3.53336 22629 ft 432 kts 58°
2026-04-24 14:09 39.56985 3.56694 23035 ft 435 kts 58°
2026-04-24 14:09 39.58531 3.60075 23433 ft 437 kts 58°
2026-04-24 14:10 39.60086 3.63475 23795 ft 440 kts 57°
2026-04-24 14:10 39.61651 3.66896 24124 ft 442 kts 57°
2026-04-24 14:10 39.63218 3.70329 24457 ft 444 kts 58°
2026-04-24 14:10 39.64790 3.73791 24791 ft 446 kts 58°
2026-04-24 14:11 39.66361 3.77262 25115 ft 447 kts 58°
2026-04-24 14:11 39.67939 3.80750 25436 ft 449 kts 57°
2026-04-24 14:11 39.71120 3.87763 26047 ft 452 kts 57°
2026-04-24 14:12 39.72716 3.91292 26342 ft 454 kts 57°
2026-04-24 14:12 39.74317 3.94837 26632 ft 456 kts 57°
2026-04-24 14:12 39.75927 3.98397 26910 ft 458 kts 57°
2026-04-24 14:12 39.77540 4.01970 27183 ft 459 kts 57°
2026-04-24 14:13 39.79158 4.05566 27450 ft 461 kts 57°
2026-04-24 14:13 39.80777 4.09171 27700 ft 463 kts 57°
2026-04-24 14:13 39.82417 4.12776 27946 ft 464 kts 54°
2026-04-24 14:13 39.84382 4.16099 28177 ft 462 kts 44°
2026-04-24 14:14 39.86743 4.18914 28396 ft 460 kts 34°
2026-04-24 14:14 39.89391 4.21133 28628 ft 458 kts 25°
2026-04-24 14:14 39.95369 4.23735 29220 ft 451 kts
2026-04-24 14:15 39.98456 4.24453 29548 ft 450 kts
2026-04-24 14:15 40.01541 4.25172 29867 ft 450 kts
2026-04-24 14:15 40.04618 4.25894 30194 ft 449 kts
2026-04-24 14:15 40.07681 4.26615 30470 ft 448 kts
2026-04-24 14:16 40.10752 4.27341 30752 ft 447 kts
2026-04-24 14:16 40.13805 4.28065 31033 ft 446 kts
2026-04-24 14:16 40.16846 4.28786 31312 ft 444 kts
2026-04-24 14:17 40.22915 4.30219 31861 ft 443 kts
2026-04-24 14:17 40.25949 4.30935 32143 ft 441 kts
2026-04-24 14:17 40.31978 4.32364 32690 ft 440 kts
2026-04-24 14:18 40.34989 4.33080 32966 ft 439 kts
2026-04-24 14:18 40.37991 4.33795 33238 ft 438 kts
2026-04-24 14:18 40.40989 4.34509 33511 ft 437 kts
2026-04-24 14:18 40.43974 4.35219 33785 ft 436 kts
2026-04-24 14:19 40.45954 4.35689 33968 ft 436 kts
2026-04-24 14:19 40.49941 4.36639 34308 ft 434 kts
2026-04-24 14:19 40.52909 4.37349 34541 ft 434 kts
2026-04-24 14:19 40.55876 4.38060 34765 ft 433 kts
2026-04-24 14:20 40.58844 4.38771 34967 ft 433 kts
2026-04-24 14:20 40.61805 4.39479 35128 ft 433 kts
2026-04-24 14:20 40.67749 4.40897 35162 ft 435 kts
2026-04-24 14:21 40.73667 4.42309 35166 ft 435 kts
2026-04-24 14:21 40.79617 4.43736 35163 ft 434 kts
2026-04-24 14:22 40.85559 4.45170 35165 ft 434 kts
2026-04-24 14:23 40.94472 4.47332 35166 ft 434 kts
2026-04-24 14:23 41.00412 4.48770 35169 ft 434 kts
2026-04-24 14:24 41.06345 4.50217 35178 ft 434 kts
2026-04-24 14:24 41.12275 4.51664 35178 ft 433 kts
2026-04-24 14:25 41.17208 4.52867 35170 ft 433 kts
2026-04-24 14:25 41.24142 4.54554 35177 ft 433 kts
2026-04-24 14:26 41.30068 4.56004 35182 ft 433 kts
2026-04-24 14:26 41.35987 4.57459 35173 ft 433 kts
2026-04-24 14:27 41.41900 4.58905 35184 ft 432 kts
2026-04-24 14:27 41.47787 4.60347 35176 ft 432 kts
2026-04-24 14:28 41.53701 4.61807 35175 ft 432 kts
2026-04-24 14:28 41.59606 4.63270 35174 ft 432 kts
2026-04-24 14:29 41.65513 4.64727 35182 ft 432 kts
2026-04-24 14:29 41.71408 4.66260 35182 ft 432 kts 14°
2026-04-24 14:30 41.76032 4.68824 35174 ft 435 kts 29°
2026-04-24 14:30 41.82096 4.73691 35173 ft 435 kts 29°
2026-04-24 14:31 41.87283 4.77868 35173 ft 435 kts 29°
2026-04-24 14:31 41.92468 4.82042 35168 ft 435 kts 29°
2026-04-24 14:32 41.97655 4.86220 35165 ft 435 kts 30°
2026-04-24 14:32 42.02846 4.90419 35163 ft 435 kts 30°
2026-04-24 14:33 42.08032 4.94624 35158 ft 436 kts 30°
2026-04-24 14:33 42.13229 4.98848 35158 ft 436 kts 30°
2026-04-24 14:34 42.18398 5.03055 35156 ft 437 kts 30°
2026-04-24 14:34 42.23599 5.07299 35153 ft 438 kts 30°
2026-04-24 14:35 42.28827 5.11563 35148 ft 439 kts 31°
2026-04-24 14:35 42.34047 5.15833 35149 ft 440 kts 31°
2026-04-24 14:36 42.39287 5.20140 35152 ft 441 kts 31°
2026-04-24 14:36 42.44528 5.24454 35150 ft 441 kts 31°
2026-04-24 14:37 42.49774 5.28776 35153 ft 442 kts 31°
2026-04-24 14:37 42.55022 5.33100 35149 ft 442 kts 31°
2026-04-24 14:38 42.60283 5.37441 35153 ft 443 kts 32°
2026-04-24 14:38 42.65544 5.41801 35147 ft 443 kts 32°
2026-04-24 14:39 42.70805 5.46175 35148 ft 444 kts 32°
2026-04-24 14:39 42.75183 5.49825 35147 ft 444 kts 32°
2026-04-24 14:40 42.80458 5.54211 35145 ft 445 kts 32°
2026-04-24 14:40 42.85740 5.58606 35145 ft 445 kts 32°
2026-04-24 14:41 42.91019 5.63024 35147 ft 446 kts 32°
2026-04-24 14:41 42.96311 5.67459 35146 ft 446 kts 32°
2026-04-24 14:42 43.01595 5.71897 35146 ft 446 kts 32°
2026-04-24 14:42 43.06889 5.76344 35147 ft 446 kts 33°
2026-04-24 14:43 43.12135 5.80773 35143 ft 446 kts 33°
2026-04-24 14:43 43.17410 5.85237 35144 ft 446 kts 33°
2026-04-24 14:44 43.22687 5.89700 35140 ft 445 kts 33°
2026-04-24 14:44 43.27949 5.94166 35131 ft 445 kts 33°
2026-04-24 14:45 43.33212 5.98649 35122 ft 445 kts 33°
2026-04-24 14:45 43.38622 6.02756 35111 ft 447 kts 22°
2026-04-24 14:46 43.44698 6.04575 35106 ft 450 kts
2026-04-24 14:46 43.50944 6.05185 35100 ft 451 kts
2026-04-24 14:47 43.57208 6.05824 35092 ft 451 kts
2026-04-24 14:47 43.63472 6.06462 35091 ft 452 kts
2026-04-24 14:48 43.69737 6.07092 35092 ft 452 kts
2026-04-24 14:48 43.75983 6.07989 35094 ft 450 kts 14°
2026-04-24 14:49 43.81804 6.11013 35092 ft 447 kts 28°
2026-04-24 14:49 43.87358 6.14806 35098 ft 448 kts 28°
2026-04-24 14:50 43.92958 6.18608 35099 ft 448 kts 27°
2026-04-24 14:50 43.98559 6.22428 35103 ft 449 kts 28°
2026-04-24 14:51 44.04158 6.26269 35105 ft 449 kts 28°
2026-04-24 14:51 44.09756 6.30118 35107 ft 449 kts 28°
2026-04-24 14:52 44.15353 6.33975 35109 ft 449 kts 28°
2026-04-24 14:52 44.20971 6.37840 35109 ft 450 kts 28°
2026-04-24 14:53 44.26571 6.41715 35113 ft 450 kts 28°
2026-04-24 14:53 44.32176 6.45587 35112 ft 449 kts 28°
2026-04-24 14:54 44.37773 6.49472 35117 ft 449 kts 28°
2026-04-24 14:54 44.43365 6.53366 35117 ft 449 kts 28°
2026-04-24 14:55 44.48017 6.56610 35116 ft 449 kts 28°
2026-04-24 14:55 44.54517 6.61150 35112 ft 449 kts 28°
2026-04-24 14:56 44.60111 6.65054 35106 ft 449 kts 28°
2026-04-24 14:56 44.65703 6.68965 35104 ft 449 kts 28°
2026-04-24 14:57 44.71299 6.72895 35098 ft 450 kts 28°
2026-04-24 14:57 44.76924 6.76759 35099 ft 451 kts 22°
2026-04-24 14:58 44.83040 6.78690 35098 ft 454 kts
2026-04-24 14:58 44.89361 6.78424 35099 ft 455 kts 358°
2026-04-24 14:59 44.95695 6.78010 35103 ft 456 kts 358°
2026-04-24 14:59 45.02041 6.77595 35107 ft 457 kts 358°
2026-04-24 15:00 45.08393 6.77181 35117 ft 457 kts 358°
2026-04-24 15:00 45.14704 6.76762 35121 ft 457 kts 358°
2026-04-24 15:01 45.21111 6.76323 35121 ft 458 kts 358°
2026-04-24 15:01 45.27475 6.75896 35125 ft 458 kts 358°
2026-04-24 15:02 45.33799 6.75473 35128 ft 458 kts 358°
2026-04-24 15:02 45.40167 6.75057 35131 ft 458 kts 358°
2026-04-24 15:03 45.46543 6.74633 35133 ft 459 kts 358°
2026-04-24 15:03 45.52919 6.74193 35127 ft 458 kts 358°
2026-04-24 15:04 45.59296 6.73752 35127 ft 459 kts 358°
2026-04-24 15:04 45.65679 6.73322 35126 ft 459 kts 358°
2026-04-24 15:05 45.72071 6.72883 35126 ft 460 kts 358°
2026-04-24 15:05 45.78466 6.72439 35127 ft 460 kts 358°
2026-04-24 15:06 45.84875 6.71997 35132 ft 461 kts 358°
2026-04-24 15:06 45.91280 6.71561 35132 ft 461 kts 358°
2026-04-24 15:07 45.97707 6.71124 35134 ft 462 kts 358°
2026-04-24 15:07 46.04126 6.70687 35136 ft 462 kts 357°
2026-04-24 15:08 46.10558 6.70215 35136 ft 463 kts 354°
2026-04-24 15:08 46.16805 6.68092 35135 ft 463 kts 341°
2026-04-24 15:09 46.22916 6.65114 35136 ft 464 kts 341°
2026-04-24 15:09 46.29039 6.62144 35138 ft 464 kts 341°
2026-04-24 15:10 46.35120 6.59189 35141 ft 464 kts 341°
2026-04-24 15:10 46.41245 6.56189 35144 ft 465 kts 341°
2026-04-24 15:11 46.47377 6.53177 35148 ft 465 kts 341°
2026-04-24 15:11 46.53507 6.50166 35153 ft 465 kts 341°
2026-04-24 15:12 46.59646 6.47150 35152 ft 466 kts 341°
2026-04-24 15:12 46.68854 6.42593 35157 ft 467 kts 341°
2026-04-24 15:13 46.75002 6.39541 35153 ft 467 kts 340°
2026-04-24 15:13 46.81156 6.36490 35149 ft 467 kts 340°
2026-04-24 15:14 46.87316 6.33432 35154 ft 468 kts 340°
2026-04-24 15:14 46.93481 6.30363 35155 ft 469 kts 340°
2026-04-24 15:15 46.99616 6.27293 35150 ft 469 kts 340°
2026-04-24 15:15 47.05777 6.24176 35151 ft 469 kts 337°
2026-04-24 15:16 47.11675 6.20081 35148 ft 469 kts 332°
2026-04-24 15:16 47.17540 6.15849 35146 ft 469 kts 332°
2026-04-24 15:17 47.23403 6.11611 35152 ft 470 kts 332°
2026-04-24 15:17 47.29267 6.07352 35151 ft 471 kts 332°
2026-04-24 15:18 47.35426 6.04052 35148 ft 473 kts 348°
2026-04-24 15:18 47.41984 6.03418 35148 ft 474 kts
2026-04-24 15:19 47.48578 6.03576 35148 ft 474 kts
2026-04-24 15:19 47.55182 6.03723 35153 ft 475 kts
2026-04-24 15:20 47.61749 6.03862 35158 ft 475 kts
2026-04-24 15:20 47.68361 6.04017 35165 ft 475 kts
2026-04-24 15:21 47.74942 6.04571 35165 ft 474 kts 11°
2026-04-24 15:21 47.81344 6.06881 35166 ft 473 kts 14°
2026-04-24 15:22 47.87734 6.09280 35163 ft 473 kts 14°
2026-04-24 15:23 47.97306 6.12887 35167 ft 473 kts 14°
2026-04-24 15:23 48.06879 6.16521 35165 ft 473 kts 14°
2026-04-24 15:25 48.21757 6.22155 35169 ft 473 kts 14°
2026-04-24 15:26 48.38720 6.28654 35178 ft 472 kts 14°
2026-04-24 15:27 48.57729 6.35985 35211 ft 468 kts 14°
2026-04-24 15:28 48.70438 6.39593 35204 ft 464 kts
2026-04-24 15:29 48.76886 6.40244 35198 ft 464 kts
2026-04-24 15:31 48.98317 6.42426 35189 ft 463 kts
2026-04-24 15:32 49.12192 6.43164 35187 ft 459 kts 349°
2026-04-24 15:33 49.23507 6.38781 35186 ft 456 kts 342°
2026-04-24 15:34 49.38833 6.32480 35190 ft 456 kts 342°
2026-04-24 15:35 49.54162 6.26123 35199 ft 456 kts 342°
2026-04-24 15:36 49.60243 6.23633 35200 ft 456 kts 342°
2026-04-24 15:36 49.69439 6.19877 35198 ft 455 kts 342°
2026-04-24 15:37 49.75555 6.17361 35198 ft 455 kts 342°
2026-04-24 15:37 49.81713 6.15027 35195 ft 458 kts 349°
2026-04-24 15:38 49.88098 6.15249 35195 ft 464 kts
2026-04-24 15:38 49.94190 6.18613 35196 ft 467 kts 22°
2026-04-24 15:39 50.00104 6.22817 35192 ft 468 kts 23°
2026-04-24 15:39 50.06003 6.27138 35193 ft 468 kts 23°
2026-04-24 15:40 50.11890 6.31491 35188 ft 469 kts 23°
2026-04-24 15:40 50.17783 6.35851 35194 ft 469 kts 23°
2026-04-24 15:41 50.23688 6.40208 35197 ft 469 kts 23°
2026-04-24 15:41 50.29588 6.44575 35201 ft 469 kts 23°
2026-04-24 15:42 50.35481 6.49000 35198 ft 470 kts 26°
2026-04-24 15:42 50.41008 6.54535 35205 ft 472 kts 31°
2026-04-24 15:43 50.46478 6.60220 35211 ft 472 kts 31°
2026-04-24 15:43 50.51916 6.65898 35219 ft 473 kts 32°
2026-04-24 15:44 50.57393 6.71636 35223 ft 473 kts 31°
2026-04-24 15:44 50.62897 6.77399 35225 ft 473 kts 31°
2026-04-24 15:45 50.68476 6.82731 35226 ft 469 kts 21°
2026-04-24 15:45 50.74683 6.85479 35108 ft 462 kts
2026-04-24 15:46 50.77869 6.85716 34867 ft 456 kts 353°
2026-04-24 15:46 50.81042 6.85462 34625 ft 456 kts 353°
2026-04-24 15:46 50.84209 6.85206 34388 ft 457 kts 353°
2026-04-24 15:46 50.87396 6.84956 34141 ft 458 kts 353°
2026-04-24 15:47 50.90571 6.84710 33868 ft 458 kts 353°
2026-04-24 15:47 50.93754 6.84357 33603 ft 458 kts 351°
2026-04-24 15:47 50.96939 6.83971 33280 ft 460 kts 354°
2026-04-24 15:47 51.00161 6.83971 32183 ft 468 kts 357°
2026-04-24 15:48 51.03406 6.84193 31606 ft 465 kts
2026-04-24 15:48 51.06574 6.85278 30947 ft 468 kts 15°
2026-04-24 15:48 51.09549 6.87378 30284 ft 470 kts 27°
2026-04-24 15:48 51.12246 6.90313 29572 ft 469 kts 38°
2026-04-24 15:49 51.14570 6.93933 28944 ft 467 kts 49°
2026-04-24 15:49 51.16556 6.97998 28312 ft 463 kts 51°
2026-04-24 15:49 51.18493 7.02079 27691 ft 460 kts 51°
2026-04-24 15:49 51.20405 7.06139 27064 ft 457 kts 52°
2026-04-24 15:50 51.22299 7.10184 26445 ft 453 kts 52°
2026-04-24 15:50 51.24178 7.14209 25859 ft 450 kts 52°
2026-04-24 15:50 51.26040 7.18211 25259 ft 447 kts 52°
2026-04-24 15:50 51.27885 7.22189 24672 ft 444 kts 52°
2026-04-24 15:51 51.29712 7.26135 24126 ft 440 kts 52°
2026-04-24 15:51 51.31530 7.30062 23534 ft 437 kts 52°
2026-04-24 15:51 51.33330 7.33945 23000 ft 432 kts 51°
2026-04-24 15:51 51.35205 7.37644 22481 ft 425 kts 43°
2026-04-24 15:52 51.37430 7.40681 22008 ft 417 kts 32°
2026-04-24 15:52 51.39924 7.42954 21527 ft 409 kts 21°
2026-04-24 15:52 51.42579 7.44482 21043 ft 403 kts 14°
2026-04-24 15:52 51.45244 7.45811 20558 ft 400 kts 14°
2026-04-24 15:53 51.47893 7.47134 20043 ft 398 kts 14°
2026-04-24 15:53 51.50530 7.48455 19537 ft 396 kts 15°
2026-04-24 15:53 51.53153 7.49766 19019 ft 394 kts 15°
2026-04-24 15:53 51.55768 7.51071 18509 ft 393 kts 15°
2026-04-24 15:54 51.58377 7.52378 17950 ft 391 kts 15°
2026-04-24 15:54 51.60958 7.53677 17442 ft 387 kts 15°
2026-04-24 15:54 51.63524 7.54969 16944 ft 384 kts 15°
2026-04-24 15:54 51.66062 7.56246 16440 ft 381 kts 15°
2026-04-24 15:55 51.68551 7.57500 15939 ft 378 kts 15°
2026-04-24 15:55 51.71039 7.58844 15479 ft 376 kts 21°
2026-04-24 15:55 51.73383 7.60681 14991 ft 374 kts 25°
2026-04-24 15:55 51.75693 7.62568 14513 ft 371 kts 25°
2026-04-24 15:56 51.77976 7.64444 14162 ft 365 kts 25°
2026-04-24 15:56 51.80226 7.66305 13629 ft 361 kts 25°
2026-04-24 15:56 51.82429 7.68130 12903 ft 350 kts 25°
2026-04-24 15:56 51.84541 7.69878 12434 ft 333 kts 26°
2026-04-24 15:57 51.86441 7.71883 11981 ft 321 kts 38°
2026-04-24 15:57 51.88094 7.74217 11518 ft 309 kts 39°
2026-04-24 15:57 51.89145 7.75711 11227 ft 301 kts 39°
2026-04-24 15:57 51.91244 7.78686 10651 ft 298 kts 39°
2026-04-24 15:58 51.92772 7.80848 10223 ft 287 kts 39°
2026-04-24 15:58 51.94256 7.82943 10014 ft 281 kts 39°
2026-04-24 15:58 51.95728 7.85026 9886 ft 281 kts 39°
2026-04-24 15:58 51.97205 7.87115 9737 ft 281 kts 39°
2026-04-24 15:59 51.98676 7.89198 9585 ft 281 kts 39°
2026-04-24 15:59 52.00127 7.91259 9325 ft 269 kts 39°
2026-04-24 15:59 52.01480 7.93190 9188 ft 249 kts 39°
2026-04-24 15:59 52.02736 7.94982 9061 ft 235 kts 39°
2026-04-24 16:00 52.03967 7.96736 8608 ft 239 kts 39°
2026-04-24 16:00 52.05199 7.98492 8272 ft 238 kts 39°
2026-04-24 16:00 52.06431 8.00252 7974 ft 227 kts 38°
2026-04-24 16:00 52.07586 8.01915 7672 ft 217 kts 39°
2026-04-24 16:01 52.08697 8.03514 7383 ft 209 kts 39°
2026-04-24 16:01 52.09766 8.05070 7082 ft 204 kts 39°
2026-04-24 16:01 52.10807 8.06589 6838 ft 203 kts 39°
2026-04-24 16:01 52.11766 8.08270 6582 ft 206 kts 59°
2026-04-24 16:02 52.12230 8.10480 6358 ft 208 kts 72°
2026-04-24 16:02 52.12545 8.12800 6098 ft 210 kts 73°
2026-04-24 16:02 52.12839 8.15125 5849 ft 210 kts 71°
2026-04-24 16:02 52.13470 8.17157 5593 ft 197 kts 38°
2026-04-24 16:03 52.14650 8.18065 5341 ft 187 kts
2026-04-24 16:03 52.15924 8.17767 5094 ft 186 kts 346°
2026-04-24 16:03 52.17166 8.17202 4993 ft 185 kts 344°
2026-04-24 16:03 52.18402 8.16603 4986 ft 186 kts 344°
2026-04-24 16:04 52.19638 8.15996 4981 ft 185 kts 343°
2026-04-24 16:04 52.20863 8.15327 4985 ft 186 kts 333°
2026-04-24 16:04 52.21836 8.13961 4982 ft 189 kts 307°
2026-04-24 16:04 52.22300 8.11934 4987 ft 198 kts 279°
2026-04-24 16:05 52.21613 8.07455 4931 ft 208 kts 256°
2026-04-24 16:05 52.21147 8.05234 4689 ft 208 kts 257°
2026-04-24 16:06 52.20212 8.00731 4149 ft 210 kts 256°
2026-04-24 16:06 52.19739 7.98451 3873 ft 214 kts 256°
2026-04-24 16:06 52.18785 7.93874 3278 ft 207 kts 256°
2026-04-24 16:07 52.18333 7.91706 3010 ft 204 kts 256°
2026-04-24 16:07 52.17872 7.89494 2738 ft 204 kts 255°
2026-04-24 16:07 52.16993 7.85292 2199 ft 185 kts 255°
2026-04-24 16:08 52.16592 7.83381 1959 ft 173 kts 255°
2026-04-24 16:08 52.15853 7.79852 1477 ft 155 kts 256°
2026-04-24 16:09 52.15191 7.76700 1079 ft 144 kts 255°
2026-04-24 16:09 52.14865 7.75169 890 ft 144 kts 255°
2026-04-24 16:09 52.14646 7.74134 746 ft 141 kts 257°
2026-04-24 16:09 52.14230 7.72129 512 ft 140 kts 256°
2026-04-24 16:10 52.13389 7.68115 168 ft 57 kts 252°
2026-04-24 16:11 52.13189 7.67172 166 ft 27 kts 250°
2026-04-24 16:11 52.13135 7.67040 167 ft 11 kts 195°
2026-04-24 16:11 52.13074 7.67073 167 ft 9 kts 146°
2026-04-24 16:12 52.13030 7.67257 167 ft 12 kts 78°
2026-04-24 16:12 52.13067 7.67438 167 ft 21 kts 71°
2026-04-24 16:12 52.13172 7.67917 168 ft 24 kts 71°
2026-04-24 16:13 52.13226 7.68180 168 ft 25 kts 71°
2026-04-24 16:13 52.13338 7.68712 168 ft 22 kts 70°
2026-04-24 16:14 52.13431 7.69157 167 ft 9 kts 71°
2026-04-24 16:14 52.13413 7.69234 167 ft 8 kts 156°
2026-04-24 16:14 52.13244 7.69327 168 ft 9 kts 161°
2026-04-24 16:15 52.13202 7.69323 167 ft 10 kts 194°
2026-04-24 16:15 52.13148 7.69297 167 ft 0 kts 196°